Find Starlink 30221

NORAD ID: 57418 Int'l Des: 2023-102 Owner: SPXS Country: US Constellation: starlink operational
LEOCIRCULAR

实时位置

正在加载3D地球...

关于 Starlink 30221

正在加载描述...

即将过境

Passes for default location (London). Set your location on the main map for personalized predictions.

高度历史

Loading altitude history...

两行轨道根数

1 57418U 23102Q 26124.16668980 .00021495 00000-0 92956-3 0 9997
2 57418 43.0009 302.3239 0001848 269.3397 23.6996 15.22064778 5883
Epoch: May 4, 2026 • Age: 7 hours

当前状态

高度 499.3 km
速度 7.62 km/s
星下点 16.54°N, 70.71°E
发射日期 Jul 19, 2023
运行时间 2.7 years
类型 internet

技术详情

分类 Payload
质量 730.00 kg
干质量 700.00 kg
总质量 730.00 kg
长度 0.30 m
直径 4.10 m
跨度 29.00 m
形状 Box + pan
制造商 SPXS
平台类型 Starlink V2M
阶段状态 In Orbit
所有者/国家 SPXS/US

Most Searched